Time,TemperatureF,DewpointF,PressureIn,WindDirection,WindDirectionDegrees,WindSpeedMPH,WindSpeedGustMPH,Humidity,HourlyPrecipIn,Conditions,Clouds,dailyrainin,SoftwareType,DateUTC
2013-04-04 00:00:00,25.3,13.0,30.47,ESE,118,0.0,1.0,59,0.00,,RMK !SN!,0.00,WUHU216DAVISVP2,2013-04-04 04:00:00,
2013-04-04 00:05:00,25.0,13.1,30.47,ESE,108,0.0,1.0,60,0.00,,RMK !SN!,0.00,WUHU216DAVISVP2,2013-04-04 04:05:00,
2013-04-04 00:10:00,25.0,13.1,30.47,ESE,107,0.0,1.0,60,0.00,,RMK !SN!,0.00,WUHU216DAVISVP2,2013-04-04 04:10:00,
2013-04-04 00:15:00,25.0,13.1,30.47,ESE,107,0.0,1.0,60,0.00,,RMK !SN!,0.00,WUHU216DAVISVP2,2013-04-04 04:15:00,
2013-04-04 00:20:00,24.9,13.4,30.46,ESE,108,0.0,1.0,61,0.00,,RMK !SN!,0.00,WUHU216DAVISVP2,2013-04-04 04:20:00,
2013-04-04 00:25:00,24.8,13.3,30.46,ESE,107,0.0,0.0,61,0.00,,RMK !SN!,0.00,WUHU216DAVISVP2,2013-04-04 04:25:00,
2013-04-04 00:30:00,24.7,13.1,30.46,ESE,107,0.0,0.0,61,0.00,,RMK !SN!,0.00,WUHU216DAVISVP2,2013-04-04 04:30:00,
2013-04-04 00:35:00,24.6,13.4,30.46,ESE,107,0.0,1.0,62,0.00,,RMK !SN!,0.00,WUHU216DAVISVP2,2013-04-04 04:35:00,
2013-04-04 00:40:00,24.5,13.4,30.46,ESE,107,0.0,1.0,62,0.00,,RMK !SN!,0.00,WUHU216DAVISVP2,2013-04-04 04:40:00,
2013-04-04 00:45:00,24.4,13.3,30.46,NE,35,0.0,2.0,62,0.00,,RMK !SN!,0.00,WUHU216DAVISVP2,2013-04-04 04:45:00,
2013-04-04 00:50:00,24.5,13.4,30.46,ENE,57,0.0,2.0,62,0.00,,RMK !SN!,0.00,WUHU216DAVISVP2,2013-04-04 04:50:00,
2013-04-04 00:55:00,24.6,13.5,30.47,ENE,67,1.0,2.0,62,0.00,,RMK !SN!,0.00,WUHU216DAVISVP2,2013-04-04 04:55:00,
2013-04-04 01:00:00,24.7,13.5,30.47,ESE,120,0.0,2.0,62,0.00,,RMK !SN!,0.00,WUHU216DAVISVP2,2013-04-04 05:00:00,
2013-04-04 01:05:00,24.7,13.6,30.46,NW,319,0.0,3.0,62,0.00,,RMK !SN!,0.00,WUHU216DAVISVP2,2013-04-04 05:05:00,
2013-04-04 01:10:00,24.7,13.6,30.46,NNW,333,0.0,3.0,62,0.00,,RMK !SN!,0.00,WUHU216DAVISVP2,2013-04-04 05:10:00,
2013-04-04 01:15:00,24.7,13.6,30.46,NNW,333,0.0,3.0,62,0.00,,RMK !SN!,0.00,WUHU216DAVISVP2,2013-04-04 05:15:00,
2013-04-04 01:20:00,24.8,13.3,30.46,NE,39,0.0,3.0,61,0.00,,RMK !SN!,0.00,WUHU216DAVISVP2,2013-04-04 05:20:00,
2013-04-04 01:25:00,24.8,13.2,30.46,NNE,25,1.0,3.0,61,0.00,,RMK !SN!,0.00,WUHU216DAVISVP2,2013-04-04 05:25:00,
2013-04-04 01:30:00,24.8,13.2,30.46,NNE,20,0.0,3.0,61,0.00,,RMK !SN!,0.00,WUHU216DAVISVP2,2013-04-04 05:30:00,
2013-04-04 01:35:00,24.7,13.2,30.46,NNE,23,0.0,3.0,61,0.00,,RMK !SN!,0.00,WUHU216DAVISVP2,2013-04-04 05:35:00,
2013-04-04 01:40:00,24.7,13.2,30.45,ENE,78,0.0,3.0,61,0.00,,RMK !SN!,0.00,WUHU216DAVISVP2,2013-04-04 05:40:00,
2013-04-04 01:45:00,24.7,13.2,30.45,ESE,121,0.0,3.0,61,0.00,,RMK !SN!,0.00,WUHU216DAVISVP2,2013-04-04 05:45:00,
2013-04-04 01:50:00,24.6,13.1,30.45,East,99,0.0,3.0,61,0.00,,RMK !SN!,0.00,WUHU216DAVISVP2,2013-04-04 05:50:00,
2013-04-04 01:55:00,24.5,13.4,30.45,SSE,166,0.0,3.0,62,0.00,,RMK !SN!,0.00,WUHU216DAVISVP2,2013-04-04 05:55:00,
2013-04-04 02:00:00,24.4,13.3,30.45,SSE,167,0.0,1.0,62,0.00,,RMK !SN!,0.00,WUHU216DAVISVP2,2013-04-04 06:00:00,
2013-04-04 02:05:00,24.3,13.2,30.45,SE,143,0.0,2.0,62,0.00,,RMK !SN!,0.00,WUHU216DAVISVP2,2013-04-04 06:05:00,
2013-04-04 02:10:00,24.3,13.2,30.46,ENE,70,0.0,2.0,62,0.00,,RMK !SN!,0.00,WUHU216DAVISVP2,2013-04-04 06:10:00,
2013-04-04 02:15:00,24.3,13.2,30.46,East,84,0.0,2.0,62,0.00,,RMK !SN!,0.00,WUHU216DAVISVP2,2013-04-04 06:15:00,
2013-04-04 02:20:00,24.2,13.5,30.46,ENE,58,0.0,2.0,63,0.00,,RMK !SN!,0.00,WUHU216DAVISVP2,2013-04-04 06:20:00,
2013-04-04 02:25:00,24.2,13.4,30.46,ENE,63,0.0,2.0,63,0.00,,RMK !SN!,0.00,WUHU216DAVISVP2,2013-04-04 06:25:00,
2013-04-04 02:31:00,24.1,13.3,30.46,ENE,60,0.0,2.0,63,0.00,,RMK !SN!,0.00,WUHU216DAVISVP2,2013-04-04 06:31:00,
2013-04-04 02:36:00,23.9,13.5,30.46,East,91,0.0,2.0,64,0.00,,RMK !SN!,0.00,WUHU216DAVISVP2,2013-04-04 06:36:00,
2013-04-04 02:41:00,23.8,13.4,30.45,ENE,65,0.0,1.0,64,0.00,,RMK !SN!,0.00,WUHU216DAVISVP2,2013-04-04 06:41:00,
2013-04-04 02:46:00,23.7,13.4,30.45,ENE,64,0.0,2.0,64,0.00,,RMK !SN!,0.00,WUHU216DAVISVP2,2013-04-04 06:46:00,
2013-04-04 02:51:00,23.7,13.4,30.45,ESE,103,0.0,3.0,64,0.00,,RMK !SN!,0.00,WUHU216DAVISVP2,2013-04-04 06:51:00,
2013-04-04 02:56:00,23.8,13.4,30.44,ESE,104,0.0,3.0,64,0.00,,RMK !SN!,0.00,WUHU216DAVISVP2,2013-04-04 06:56:00,
2013-04-04 03:01:00,23.8,13.4,30.44,ESE,104,0.0,3.0,64,0.00,,RMK !SN!,0.00,WUHU216DAVISVP2,2013-04-04 07:01:00,
2013-04-04 03:06:00,23.8,13.4,30.44,ENE,58,0.0,4.0,64,0.00,,RMK !SN!,0.00,WUHU216DAVISVP2,2013-04-04 07:06:00,
2013-04-04 03:11:00,23.9,13.5,30.44,WNW,302,2.0,4.0,64,0.00,,RMK !SN!,0.00,WUHU216DAVISVP2,2013-04-04 07:11:00,
2013-04-04 03:16:00,23.9,13.5,30.44,SSW,200,0.0,4.0,64,0.00,,RMK !SN!,0.00,WUHU216DAVISVP2,2013-04-04 07:16:00,
2013-04-04 03:21:00,23.9,13.5,30.43,SW,231,1.0,4.0,64,0.00,,RMK !SN!,0.00,WUHU216DAVISVP2,2013-04-04 07:21:00,
2013-04-04 03:26:00,24.0,13.6,30.44,NE,34,2.0,3.0,64,0.00,,RMK !SN!,0.00,WUHU216DAVISVP2,2013-04-04 07:26:00,
2013-04-04 03:31:00,24.1,13.4,30.43,NNW,334,0.0,5.0,63,0.00,,RMK !SN!,0.00,WUHU216DAVISVP2,2013-04-04 07:31:00,
2013-04-04 03:36:00,24.0,13.3,30.43,NE,51,0.0,5.0,63,0.00,,RMK !SN!,0.00,WUHU216DAVISVP2,2013-04-04 07:36:00,
2013-04-04 03:41:00,24.0,13.2,30.43,ESE,110,0.0,5.0,63,0.00,,RMK !SN!,0.00,WUHU216DAVISVP2,2013-04-04 07:41:00,
2013-04-04 03:46:00,24.0,13.3,30.43,NE,56,1.0,4.0,63,0.00,,RMK !SN!,0.00,WUHU216DAVISVP2,2013-04-04 07:46:00,
2013-04-04 03:51:00,24.1,13.4,30.43,ENE,70,1.0,4.0,63,0.00,,RMK !SN!,0.00,WUHU216DAVISVP2,2013-04-04 07:51:00,
2013-04-04 03:56:00,24.1,13.4,30.44,NNE,21,1.0,4.0,63,0.00,,RMK !SN!,0.00,WUHU216DAVISVP2,2013-04-04 07:56:00,
2013-04-04 04:01:00,24.1,13.4,30.44,NNW,330,1.0,3.0,63,0.00,,RMK !SN!,0.00,WUHU216DAVISVP2,2013-04-04 08:01:00,
2013-04-04 04:06:00,24.1,13.3,30.44,North,4,2.0,3.0,63,0.00,,RMK !SN!,0.00,WUHU216DAVISVP2,2013-04-04 08:06:00,
2013-04-04 04:11:00,24.1,13.4,30.44,NE,54,0.0,3.0,63,0.00,,RMK !SN!,0.00,WUHU216DAVISVP2,2013-04-04 08:11:00,
2013-04-04 04:16:00,24.0,13.3,30.44,NW,323,2.0,3.0,63,0.00,,RMK !SN!,0.00,WUHU216DAVISVP2,2013-04-04 08:16:00,
2013-04-04 04:21:00,24.0,13.3,30.44,ENE,60,2.0,3.0,63,0.00,,RMK !SN!,0.00,WUHU216DAVISVP2,2013-04-04 08:21:00,
2013-04-04 04:26:00,23.9,13.2,30.44,North,10,2.0,6.0,63,0.00,,RMK !SN!,0.00,WUHU216DAVISVP2,2013-04-04 08:26:00,
2013-04-04 04:31:00,23.8,13.4,30.44,ENE,64,0.0,6.0,64,0.00,,RMK !SN!,0.00,WUHU216DAVISVP2,2013-04-04 08:31:00,
2013-04-04 04:37:00,23.7,13.4,30.44,East,79,0.0,5.0,64,0.00,,RMK !SN!,0.00,WUHU216DAVISVP2,2013-04-04 08:37:00,
2013-04-04 04:42:00,23.6,13.3,30.44,East,87,0.0,5.0,64,0.00,,RMK !SN!,0.00,WUHU216DAVISVP2,2013-04-04 08:42:00,
2013-04-04 04:47:00,23.5,13.5,30.44,ENE,67,1.0,3.0,65,0.00,,RMK !SN!,0.00,WUHU216DAVISVP2,2013-04-04 08:47:00,
2013-04-04 04:52:00,23.4,13.4,30.44,NE,50,0.0,3.0,65,0.00,,RMK !SN!,0.00,WUHU216DAVISVP2,2013-04-04 08:52:00,
2013-04-04 04:57:00,23.2,13.2,30.43,East,81,0.0,3.0,65,0.00,,RMK !SN!,0.00,WUHU216DAVISVP2,2013-04-04 08:57:00,
2013-04-04 05:02:00,23.3,13.3,30.43,NE,39,1.0,6.0,65,0.00,,RMK !SN!,0.00,WUHU216DAVISVP2,2013-04-04 09:02:00,
2013-04-04 05:07:00,23.3,13.3,30.43,ENE,69,0.0,6.0,65,0.00,,RMK !SN!,0.00,WUHU216DAVISVP2,2013-04-04 09:07:00,
2013-04-04 05:12:00,23.3,13.3,30.43,NNW,334,1.0,5.0,65,0.00,,RMK !SN!,0.00,WUHU216DAVISVP2,2013-04-04 09:12:00,
2013-04-04 05:17:00,23.4,13.4,30.43,North,354,3.0,5.0,65,0.00,,RMK !SN!,0.00,WUHU216DAVISVP2,2013-04-04 09:17:00,
2013-04-04 05:22:00,23.4,13.4,30.43,NW,305,0.0,4.0,65,0.00,,RMK !SN!,0.00,WUHU216DAVISVP2,2013-04-04 09:22:00,
2013-04-04 05:27:00,23.5,13.5,30.43,ENE,75,0.0,5.0,65,0.00,,RMK !SN!,0.00,WUHU216DAVISVP2,2013-04-04 09:27:00,
2013-04-04 05:32:00,23.5,13.2,30.43,NW,308,1.0,5.0,64,0.00,,RMK !SN!,0.00,WUHU216DAVISVP2,2013-04-04 09:32:00,
2013-04-04 05:37:00,23.5,13.5,30.43,NNW,330,1.0,5.0,65,0.00,,RMK !SN!,0.00,WUHU216DAVISVP2,2013-04-04 09:37:00,
2013-04-04 05:42:00,23.5,13.5,30.43,East,89,0.0,5.0,65,0.00,,RMK !SN!,0.00,WUHU216DAVISVP2,2013-04-04 09:42:00,
2013-04-04 05:47:00,23.4,13.4,30.43,NNE,22,4.0,5.0,65,0.00,,RMK !SN!,0.00,WUHU216DAVISVP2,2013-04-04 09:47:00,
2013-04-04 05:52:00,23.3,13.3,30.43,NE,41,1.0,4.0,65,0.00,,RMK !SN!,0.00,WUHU216DAVISVP2,2013-04-04 09:52:00,
2013-04-04 05:57:00,23.2,13.2,30.42,East,100,0.0,4.0,65,0.00,,RMK !SN!,0.00,WUHU216DAVISVP2,2013-04-04 09:57:00,
2013-04-04 06:02:00,23.1,13.4,30.42,NE,51,0.0,4.0,66,0.00,,RMK !SN!,0.00,WUHU216DAVISVP2,2013-04-04 10:02:00,
2013-04-04 06:07:00,23.1,13.5,30.42,North,3,1.0,6.0,66,0.00,,RMK !SN!,0.00,WUHU216DAVISVP2,2013-04-04 10:07:00,
2013-04-04 06:12:00,23.1,13.5,30.42,ENE,57,3.0,6.0,66,0.00,,RMK !SN!,0.00,WUHU216DAVISVP2,2013-04-04 10:12:00,
2013-04-04 06:17:00,23.2,13.2,30.42,East,86,0.0,6.0,65,0.00,,RMK !SN!,0.00,WUHU216DAVISVP2,2013-04-04 10:17:00,
2013-04-04 06:23:00,23.3,13.3,30.42,SSE,150,0.0,6.0,65,0.00,,RMK !SN!,0.00,WUHU216DAVISVP2,2013-04-04 10:23:00,
2013-04-04 06:28:00,23.2,13.2,30.42,NE,41,1.0,5.0,65,0.00,,RMK !SN!,0.00,WUHU216DAVISVP2,2013-04-04 10:28:00,
2013-04-04 06:33:00,23.2,13.2,30.41,ESE,106,0.0,5.0,65,0.00,,RMK !SN!,0.00,WUHU216DAVISVP2,2013-04-04 10:33:00,
2013-04-04 06:38:00,23.0,13.4,30.41,NNE,28,1.0,4.0,66,0.00,,RMK !SN!,0.00,WUHU216DAVISVP2,2013-04-04 10:38:00,
2013-04-04 06:43:00,22.9,13.3,30.41,NNE,18,0.0,4.0,66,0.00,,RMK !SN!,0.00,WUHU216DAVISVP2,2013-04-04 10:43:00,
2013-04-04 06:48:00,23.0,13.4,30.41,ENE,60,1.0,4.0,66,0.00,,RMK !SN!,0.00,WUHU216DAVISVP2,2013-04-04 10:48:00,
2013-04-04 06:53:00,22.9,13.3,30.41,North,5,1.0,4.0,66,0.00,,RMK !SN!,0.00,WUHU216DAVISVP2,2013-04-04 10:53:00,
2013-04-04 06:58:00,22.9,13.3,30.40,NNE,30,0.0,5.0,66,0.00,,RMK !SN!,0.00,WUHU216DAVISVP2,2013-04-04 10:58:00,
2013-04-04 07:03:00,22.9,13.3,30.40,ESE,110,0.0,5.0,66,0.00,,RMK !SN!,0.00,WUHU216DAVISVP2,2013-04-04 11:03:00,
2013-04-04 07:08:00,23.0,13.4,30.40,NNE,23,0.0,5.0,66,0.00,,RMK !SN!,0.00,WUHU216DAVISVP2,2013-04-04 11:08:00,
2013-04-04 07:13:00,22.9,13.3,30.40,NNE,12,0.0,5.0,66,0.00,,RMK !SN!,0.00,WUHU216DAVISVP2,2013-04-04 11:13:00,
2013-04-04 07:18:00,22.9,13.2,30.40,East,82,0.0,4.0,66,0.00,,RMK !SN!,0.00,WUHU216DAVISVP2,2013-04-04 11:18:00,
2013-04-04 07:23:00,23.0,13.3,30.39,WNW,290,1.0,4.0,66,0.00,,RMK !SN!,0.00,WUHU216DAVISVP2,2013-04-04 11:23:00,
2013-04-04 07:28:00,23.2,13.6,30.39,ENE,65,0.0,5.0,66,0.00,,RMK !SN!,0.00,WUHU216DAVISVP2,2013-04-04 11:28:00,
2013-04-04 07:33:00,23.4,13.4,30.39,NE,41,2.0,5.0,65,0.00,,RMK !SN!,0.00,WUHU216DAVISVP2,2013-04-04 11:33:00,
2013-04-04 07:38:00,23.6,13.6,30.39,North,353,2.0,5.0,65,0.00,,RMK !SN!,0.00,WUHU216DAVISVP2,2013-04-04 11:38:00,
2013-04-04 07:43:00,23.8,13.4,30.39,North,10,5.0,5.0,64,0.00,,RMK !SN!,0.00,WUHU216DAVISVP2,2013-04-04 11:43:00,
2013-04-04 07:48:00,24.0,13.6,30.39,NNW,329,4.0,5.0,64,0.00,,RMK !SN!,0.00,WUHU216DAVISVP2,2013-04-04 11:48:00,
2013-04-04 07:53:00,24.3,13.9,30.38,NW,308,3.0,6.0,64,0.00,,RMK !SN!,0.00,WUHU216DAVISVP2,2013-04-04 11:53:00,
2013-04-04 07:58:00,24.6,13.8,30.39,NW,322,3.0,7.0,63,0.00,,RMK !SN!,0.00,WUHU216DAVISVP2,2013-04-04 11:58:00,
2013-04-04 08:03:00,25.1,14.3,30.39,NNW,330,4.0,7.0,63,0.00,,RMK !SN!,0.00,WUHU216DAVISVP2,2013-04-04 12:03:00,
2013-04-04 08:08:00,25.5,13.9,30.38,North,351,5.0,8.0,61,0.00,,RMK !SN!,0.00,WUHU216DAVISVP2,2013-04-04 12:08:00,
2013-04-04 08:13:00,25.9,14.3,30.38,North,354,3.0,8.0,61,0.00,,RMK !SN!,0.00,WUHU216DAVISVP2,2013-04-04 12:13:00,
2013-04-04 08:18:00,26.3,14.3,30.38,WSW,250,1.0,8.0,60,0.00,,RMK !SN!,0.00,WUHU216DAVISVP2,2013-04-04 12:18:00,
2013-04-04 08:23:00,26.9,14.5,30.38,East,86,1.0,8.0,59,0.00,,RMK !SN!,0.00,WUHU216DAVISVP2,2013-04-04 12:23:00,
2013-04-04 08:28:00,27.2,14.0,30.38,NNW,333,5.0,8.0,57,0.00,,RMK !SN!,0.00,WUHU216DAVISVP2,2013-04-04 12:28:00,
2013-04-04 08:33:00,27.5,14.3,30.37,West,277,2.0,8.0,57,0.00,,RMK !SN!,0.00,WUHU216DAVISVP2,2013-04-04 12:33:00,
2013-04-04 08:38:00,28.0,14.3,30.37,NE,34,3.0,8.0,56,0.00,,RMK !SN!,0.00,WUHU216DAVISVP2,2013-04-04 12:38:00,
2013-04-04 08:43:00,28.5,14.8,30.37,East,101,0.0,8.0,56,0.00,,RMK !SN!,0.00,WUHU216DAVISVP2,2013-04-04 12:43:00,
2013-04-04 08:48:00,28.9,14.7,30.37,SSW,212,1.0,7.0,55,0.00,,RMK !SN!,0.00,WUHU216DAVISVP2,2013-04-04 12:48:00,
2013-04-04 08:53:00,29.2,14.6,30.36,WSW,249,2.0,7.0,54,0.00,,RMK !SN!,0.00,WUHU216DAVISVP2,2013-04-04 12:53:00,
2013-04-04 08:58:00,29.4,14.8,30.36,NNW,347,4.0,7.0,54,0.00,,RMK !SN!,0.00,WUHU216DAVISVP2,2013-04-04 12:58:00,
2013-04-04 09:03:00,29.7,14.2,30.36,North,1,3.0,8.0,52,0.00,,RMK !SN!,0.00,WUHU216DAVISVP2,2013-04-04 13:03:00,
2013-04-04 09:08:00,29.8,14.7,30.36,ENE,64,0.0,8.0,53,0.00,,RMK !SN!,0.00,WUHU216DAVISVP2,2013-04-04 13:08:00,
2013-04-04 09:13:00,30.3,14.3,30.36,East,95,4.0,8.0,51,0.00,,RMK !SN!,0.00,WUHU216DAVISVP2,2013-04-04 13:13:00,
2013-04-04 09:18:00,30.4,14.4,30.36,NNE,18,4.0,8.0,51,0.00,,RMK !SN!,0.00,WUHU216DAVISVP2,2013-04-04 13:18:00,
2013-04-04 09:23:00,30.6,14.1,30.36,NW,312,2.0,9.0,50,0.00,,RMK !SN!,0.00,WUHU216DAVISVP2,2013-04-04 13:23:00,
2013-04-04 09:28:00,30.9,14.4,30.35,SSW,212,1.0,9.0,50,0.00,,RMK !SN!,0.00,WUHU216DAVISVP2,2013-04-04 13:28:00,
2013-04-04 09:33:00,31.2,14.6,30.35,NW,322,4.0,9.0,50,0.00,,RMK !SN!,0.00,WUHU216DAVISVP2,2013-04-04 13:33:00,
2013-04-04 09:38:00,31.4,14.8,30.35,ENE,74,0.0,10.0,50,0.00,,RMK !SN!,0.00,WUHU216DAVISVP2,2013-04-04 13:38:00,
2013-04-04 09:43:00,31.5,14.4,30.35,WNW,288,4.0,10.0,49,0.00,,RMK !SN!,0.00,WUHU216DAVISVP2,2013-04-04 13:43:00,
2013-04-04 09:48:00,31.7,15.1,30.34,North,4,3.0,9.0,50,0.00,,RMK !SN!,0.00,WUHU216DAVISVP2,2013-04-04 13:48:00,
2013-04-04 09:53:00,32.1,15.0,30.34,West,262,2.0,9.0,49,0.00,,RMK !SN!,0.00,WUHU216DAVISVP2,2013-04-04 13:53:00,
2013-04-04 09:58:00,32.2,15.1,30.34,NNE,28,3.0,9.0,49,0.00,,RMK !SN!,0.00,WUHU216DAVISVP2,2013-04-04 13:58:00,
2013-04-04 10:03:00,32.6,15.5,30.34,East,92,2.0,7.0,49,0.00,,RMK !SN!,0.00,WUHU216DAVISVP2,2013-04-04 14:03:00,
2013-04-04 10:08:00,32.7,14.6,30.33,NNE,22,1.0,8.0,47,0.00,,RMK !SN!,0.00,WUHU216DAVISVP2,2013-04-04 14:08:00,
2013-04-04 10:13:00,32.9,14.8,30.33,North,349,4.0,8.0,47,0.00,,RMK !SN!,0.00,WUHU216DAVISVP2,2013-04-04 14:13:00,
2013-04-04 10:18:00,33.1,14.4,30.33,NE,52,1.0,9.0,46,0.00,,RMK !SN!,0.00,WUHU216DAVISVP2,2013-04-04 14:18:00,
2013-04-04 10:23:00,33.5,14.4,30.33,WNW,297,1.0,8.0,45,0.00,,RMK !SN!,0.00,WUHU216DAVISVP2,2013-04-04 14:23:00,
2013-04-04 10:28:00,33.9,14.8,30.33,ENE,70,4.0,8.0,45,0.00,,RMK !SN!,0.00,WUHU216DAVISVP2,2013-04-04 14:28:00,
2013-04-04 10:33:00,34.3,15.1,30.33,NNE,18,4.0,7.0,45,0.00,,RMK !SN!,0.00,WUHU216DAVISVP2,2013-04-04 14:33:00,
2013-04-04 10:38:00,34.7,14.3,30.33,NW,316,1.0,7.0,43,0.00,,RMK !SN!,0.00,WUHU216DAVISVP2,2013-04-04 14:38:00,
2013-04-04 10:43:00,35.1,13.6,30.32,East,87,2.0,10.0,41,0.00,,RMK !SN!,0.00,WUHU216DAVISVP2,2013-04-04 14:43:00,
2013-04-04 10:48:00,35.6,14.0,30.32,NE,41,1.0,10.0,41,0.00,,RMK !SN!,0.00,WUHU216DAVISVP2,2013-04-04 14:48:00,
2013-04-04 10:53:00,35.8,13.6,30.32,NNE,18,2.0,9.0,40,0.00,,RMK !SN!,0.00,WUHU216DAVISVP2,2013-04-04 14:53:00,
2013-04-04 10:58:00,36.5,14.8,30.32,North,1,4.0,9.0,41,0.00,,RMK !SN!,0.00,WUHU216DAVISVP2,2013-04-04 14:58:00,
2013-04-04 11:03:00,36.7,13.2,30.32,NNW,343,5.0,7.0,38,0.00,,RMK !SN!,0.00,WUHU216DAVISVP2,2013-04-04 15:03:00,
2013-04-04 11:08:00,36.6,13.8,30.32,North,355,2.0,7.0,39,0.00,,RMK !SN!,0.00,WUHU216DAVISVP2,2013-04-04 15:08:00,
2013-04-04 11:13:00,37.1,14.2,30.32,North,359,2.0,7.0,39,0.00,,RMK !SN!,0.00,WUHU216DAVISVP2,2013-04-04 15:13:00,
2013-04-04 11:18:00,37.6,14.7,30.32,NW,325,2.0,7.0,39,0.00,,RMK !SN!,0.00,WUHU216DAVISVP2,2013-04-04 15:18:00,
2013-04-04 11:23:00,38.0,13.8,30.32,East,83,2.0,7.0,37,0.00,,RMK !SN!,0.00,WUHU216DAVISVP2,2013-04-04 15:23:00,
2013-04-04 11:29:00,38.8,14.5,30.31,SW,214,2.0,7.0,37,0.00,,RMK !SN!,0.00,WUHU216DAVISVP2,2013-04-04 15:29:00,
2013-04-04 11:34:00,39.7,13.4,30.31,East,101,2.0,7.0,34,0.00,,RMK !SN!,0.00,WUHU216DAVISVP2,2013-04-04 15:34:00,
2013-04-04 11:39:00,40.0,13.0,30.30,NNW,330,4.0,7.0,33,0.00,,RMK !SN!,0.00,WUHU216DAVISVP2,2013-04-04 15:39:00,
2013-04-04 11:44:00,40.5,14.1,30.30,SSE,148,1.0,7.0,34,0.00,,RMK !SN!,0.00,WUHU216DAVISVP2,2013-04-04 15:44:00,
2013-04-04 11:49:00,41.0,13.1,30.30,ENE,78,0.0,7.0,32,0.00,,RMK !SN!,0.00,WUHU216DAVISVP2,2013-04-04 15:49:00,
2013-04-04 11:54:00,41.3,14.1,30.30,SSW,208,1.0,7.0,33,0.00,,RMK !SN!,0.00,WUHU216DAVISVP2,2013-04-04 15:54:00,
2013-04-04 11:59:00,41.1,13.2,30.29,East,92,0.0,8.0,32,0.00,,RMK !SN!,0.00,WUHU216DAVISVP2,2013-04-04 15:59:00,
2013-04-04 12:04:00,41.4,14.2,30.29,East,91,2.0,8.0,33,0.00,,RMK !SN!,0.00,WUHU216DAVISVP2,2013-04-04 16:04:00,
2013-04-04 12:09:00,42.1,15.5,30.29,WSW,250,5.0,8.0,34,0.00,,RMK !SN!,0.00,WUHU216DAVISVP2,2013-04-04 16:09:00,
2013-04-04 12:14:00,42.7,14.6,30.28,East,94,1.0,8.0,32,0.00,,RMK !SN!,0.00,WUHU216DAVISVP2,2013-04-04 16:14:00,
2013-04-04 12:20:00,43.2,14.6,30.28,South,184,1.0,6.0,31,0.00,,RMK !SN!,0.00,WUHU216DAVISVP2,2013-04-04 16:20:00,
2013-04-04 12:25:00,43.6,14.2,30.27,NNE,32,3.0,9.0,30,0.00,,RMK !SN!,0.00,WUHU216DAVISVP2,2013-04-04 16:25:00,
2013-04-04 12:30:00,44.0,13.5,30.26,ESE,111,0.0,9.0,29,0.00,,RMK !SN!,0.00,WUHU216DAVISVP2,2013-04-04 16:30:00,
2013-04-04 12:35:00,44.2,12.9,30.26,NNW,344,1.0,8.0,28,0.00,,RMK !SN!,0.00,WUHU216DAVISVP2,2013-04-04 16:35:00,
2013-04-04 12:40:00,44.0,14.3,30.26,ENE,75,1.0,8.0,30,0.00,,RMK !SN!,0.00,WUHU216DAVISVP2,2013-04-04 16:40:00,
2013-04-04 12:45:00,44.5,13.2,30.25,WNW,298,3.0,8.0,28,0.00,,RMK !SN!,0.00,WUHU216DAVISVP2,2013-04-04 16:45:00,
2013-04-04 12:50:00,44.8,13.5,30.25,SW,226,2.0,9.0,28,0.00,,RMK !SN!,0.00,WUHU216DAVISVP2,2013-04-04 16:50:00,
2013-04-04 12:55:00,45.2,13.8,30.24,NNE,18,3.0,9.0,28,0.00,,RMK !SN!,0.00,WUHU216DAVISVP2,2013-04-04 16:55:00,
2013-04-04 13:00:00,45.5,14.1,30.24,WSW,243,1.0,9.0,28,0.00,,RMK !SN!,0.00,WUHU216DAVISVP2,2013-04-04 17:00:00,
2013-04-04 13:05:00,45.7,12.6,30.24,North,351,7.0,9.0,26,0.00,,RMK !SN!,0.00,WUHU216DAVISVP2,2013-04-04 17:05:00,
2013-04-04 13:10:00,45.4,12.3,30.23,NNE,23,3.0,8.0,26,0.00,,RMK !SN!,0.00,WUHU216DAVISVP2,2013-04-04 17:10:00,
2013-04-04 13:15:00,45.9,12.7,30.23,NNE,20,3.0,8.0,26,0.00,,RMK !SN!,0.00,WUHU216DAVISVP2,2013-04-04 17:15:00,
2013-04-04 13:20:00,46.3,13.9,30.23,SSE,154,0.0,8.0,27,0.00,,RMK !SN!,0.00,WUHU216DAVISVP2,2013-04-04 17:20:00,
2013-04-04 13:25:00,46.6,13.3,30.22,North,349,3.0,9.0,26,0.00,,RMK !SN!,0.00,WUHU216DAVISVP2,2013-04-04 17:25:00,
2013-04-04 13:30:00,47.6,15.1,30.22,NNE,27,3.0,9.0,27,0.00,,RMK !SN!,0.00,WUHU216DAVISVP2,2013-04-04 17:30:00,
2013-04-04 13:35:00,47.9,14.5,30.21,NNE,13,4.0,9.0,26,0.00,,RMK !SN!,0.00,WUHU216DAVISVP2,2013-04-04 17:35:00,
2013-04-04 13:40:00,48.5,15.0,30.21,WSW,255,1.0,8.0,26,0.00,,RMK !SN!,0.00,WUHU216DAVISVP2,2013-04-04 17:40:00,
2013-04-04 13:45:00,49.3,14.0,30.21,NNE,30,5.0,9.0,24,0.00,,RMK !SN!,0.00,WUHU216DAVISVP2,2013-04-04 17:45:00,
2013-04-04 13:50:00,49.0,12.7,30.21,NNW,344,1.0,11.0,23,0.00,,RMK !SN!,0.00,WUHU216DAVISVP2,2013-04-04 17:50:00,
2013-04-04 13:55:00,49.1,11.8,30.21,NNE,15,7.0,12.0,22,0.00,,RMK !SN!,0.00,WUHU216DAVISVP2,2013-04-04 17:55:00,
2013-04-04 14:00:00,48.8,12.5,30.20,ESE,105,1.0,12.0,23,0.00,,RMK !SN!,0.00,WUHU216DAVISVP2,2013-04-04 18:00:00,
2013-04-04 14:05:00,49.5,11.1,30.20,ESE,111,3.0,12.0,21,0.00,,RMK !SN!,0.00,WUHU216DAVISVP2,2013-04-04 18:05:00,
2013-04-04 14:10:00,49.6,11.2,30.19,NNE,22,2.0,12.0,21,0.00,,RMK !SN!,0.00,WUHU216DAVISVP2,2013-04-04 18:10:00,
2013-04-04 14:15:00,50.2,12.7,30.19,WSW,252,3.0,10.0,22,0.00,,RMK !SN!,0.00,WUHU216DAVISVP2,2013-04-04 18:15:00,
2013-04-04 14:20:00,50.4,9.6,30.18,NNW,341,4.0,10.0,19,0.00,,RMK !SN!,0.00,WUHU216DAVISVP2,2013-04-04 18:20:00,
2013-04-04 14:25:00,50.9,11.2,30.18,North,352,3.0,9.0,20,0.00,,RMK !SN!,0.00,WUHU216DAVISVP2,2013-04-04 18:25:00,
2013-04-04 14:30:00,51.5,10.5,30.18,East,101,4.0,9.0,19,0.00,,RMK !SN!,0.00,WUHU216DAVISVP2,2013-04-04 18:30:00,
2013-04-04 14:35:00,51.6,10.6,30.18,NE,36,2.0,9.0,19,0.00,,RMK !SN!,0.00,WUHU216DAVISVP2,2013-04-04 18:35:00,
2013-04-04 14:40:00,51.7,9.5,30.17,West,259,3.0,9.0,18,0.00,,RMK !SN!,0.00,WUHU216DAVISVP2,2013-04-04 18:40:00,
2013-04-04 14:45:00,51.9,10.9,30.17,NNE,30,6.0,7.0,19,0.00,,RMK !SN!,0.00,WUHU216DAVISVP2,2013-04-04 18:45:00,
2013-04-04 14:50:00,52.2,11.1,30.17,North,355,12.0,12.0,19,0.00,,RMK !SN!,0.00,WUHU216DAVISVP2,2013-04-04 18:50:00,
2013-04-04 14:55:00,52.1,9.8,30.16,ENE,62,4.0,12.0,18,0.00,,RMK !SN!,0.00,WUHU216DAVISVP2,2013-04-04 18:55:00,
2013-04-04 15:00:00,51.9,9.6,30.16,ENE,70,1.0,12.0,18,0.00,,RMK !SN!,0.00,WUHU216DAVISVP2,2013-04-04 19:00:00,
2013-04-04 15:05:00,52.7,9.0,30.17,North,8,5.0,11.0,17,0.00,,RMK !SN!,0.00,WUHU216DAVISVP2,2013-04-04 19:05:00,
2013-04-04 15:10:00,52.6,8.9,30.16,NW,321,3.0,10.0,17,0.00,,RMK !SN!,0.00,WUHU216DAVISVP2,2013-04-04 19:10:00,
2013-04-04 15:15:00,52.8,9.1,30.16,East,91,5.0,10.0,17,0.00,,RMK !SN!,0.00,WUHU216DAVISVP2,2013-04-04 19:15:00,
2013-04-04 15:20:00,52.8,7.8,30.15,ESE,106,3.0,10.0,16,0.00,,RMK !SN!,0.00,WUHU216DAVISVP2,2013-04-04 19:20:00,
2013-04-04 15:25:00,52.9,6.4,30.14,NE,43,2.0,9.0,15,0.00,,RMK !SN!,0.00,WUHU216DAVISVP2,2013-04-04 19:25:00,
2013-04-04 15:31:00,53.0,7.9,30.14,NNW,340,5.0,7.0,16,0.00,,RMK !SN!,0.00,WUHU216DAVISVP2,2013-04-04 19:31:00,
2013-04-04 15:36:00,53.4,6.8,30.14,East,83,3.0,8.0,15,0.00,,RMK !SN!,0.00,WUHU216DAVISVP2,2013-04-04 19:36:00,
2013-04-04 15:41:00,53.8,8.6,30.14,ENE,68,2.0,8.0,16,0.00,,RMK !SN!,0.00,WUHU216DAVISVP2,2013-04-04 19:41:00,
2013-04-04 15:46:00,53.5,6.9,30.13,East,96,1.0,8.0,15,0.00,,RMK !SN!,0.00,WUHU216DAVISVP2,2013-04-04 19:46:00,
2013-04-04 15:51:00,54.2,8.9,30.13,NNE,12,3.0,8.0,16,0.00,,RMK !SN!,0.00,WUHU216DAVISVP2,2013-04-04 19:51:00,
2013-04-04 15:56:00,54.4,9.1,30.12,South,175,1.0,8.0,16,0.00,,RMK !SN!,0.00,WUHU216DAVISVP2,2013-04-04 19:56:00,
2013-04-04 16:01:00,54.4,7.6,30.12,NNE,33,5.0,8.0,15,0.00,,RMK !SN!,0.00,WUHU216DAVISVP2,2013-04-04 20:01:00,
2013-04-04 16:06:00,54.7,9.3,30.11,ENE,74,2.0,8.0,16,0.00,,RMK !SN!,0.00,WUHU216DAVISVP2,2013-04-04 20:06:00,
2013-04-04 16:11:00,54.8,6.4,30.11,NNE,31,5.0,8.0,14,0.00,,RMK !SN!,0.00,WUHU216DAVISVP2,2013-04-04 20:11:00,
2013-04-04 16:16:00,54.7,4.7,30.11,ENE,63,5.0,8.0,13,0.00,,RMK !SN!,0.00,WUHU216DAVISVP2,2013-04-04 20:16:00,
2013-04-04 16:21:00,54.8,6.4,30.10,ESE,102,3.0,8.0,14,0.00,,RMK !SN!,0.00,WUHU216DAVISVP2,2013-04-04 20:21:00,
2013-04-04 16:26:00,55.2,5.1,30.10,East,85,1.0,7.0,13,0.00,,RMK !SN!,0.00,WUHU216DAVISVP2,2013-04-04 20:26:00,
2013-04-04 16:31:00,55.2,5.1,30.10,ENE,76,3.0,7.0,13,0.00,,RMK !SN!,0.00,WUHU216DAVISVP2,2013-04-04 20:31:00,
2013-04-04 16:37:00,55.5,5.3,30.10,NE,49,2.0,7.0,13,0.00,,RMK !SN!,0.00,WUHU216DAVISVP2,2013-04-04 20:37:00,
2013-04-04 16:42:00,55.4,5.2,30.09,ENE,63,3.0,9.0,13,0.00,,RMK !SN!,0.00,WUHU216DAVISVP2,2013-04-04 20:42:00,
2013-04-04 16:47:00,55.5,7.0,30.09,East,84,3.0,9.0,14,0.00,,RMK !SN!,0.00,WUHU216DAVISVP2,2013-04-04 20:47:00,
2013-04-04 16:52:00,55.5,5.3,30.09,NW,319,5.0,9.0,13,0.00,,RMK !SN!,0.00,WUHU216DAVISVP2,2013-04-04 20:52:00,
2013-04-04 16:57:00,55.6,7.0,30.09,West,281,1.0,9.0,14,0.00,,RMK !SN!,0.00,WUHU216DAVISVP2,2013-04-04 20:57:00,
2013-04-04 17:02:00,55.8,7.2,30.08,NNE,25,3.0,8.0,14,0.00,,RMK !SN!,0.00,WUHU216DAVISVP2,2013-04-04 21:02:00,
2013-04-04 17:07:00,55.5,5.4,30.08,SSE,158,0.0,8.0,13,0.00,,RMK !SN!,0.00,WUHU216DAVISVP2,2013-04-04 21:07:00,
2013-04-04 17:12:00,55.5,5.3,30.08,East,82,1.0,7.0,13,0.00,,RMK !SN!,0.00,WUHU216DAVISVP2,2013-04-04 21:12:00,
2013-04-04 17:17:00,56.1,5.8,30.08,SSE,162,0.0,6.0,13,0.00,,RMK !SN!,0.00,WUHU216DAVISVP2,2013-04-04 21:17:00,
2013-04-04 17:22:00,56.1,7.4,30.08,NW,315,3.0,6.0,14,0.00,,RMK !SN!,0.00,WUHU216DAVISVP2,2013-04-04 21:22:00,
2013-04-04 17:27:00,55.7,5.5,30.07,ENE,57,2.0,6.0,13,0.00,,RMK !SN!,0.00,WUHU216DAVISVP2,2013-04-04 21:27:00,
2013-04-04 17:32:00,55.6,5.4,30.07,NE,37,2.0,7.0,13,0.00,,RMK !SN!,0.00,WUHU216DAVISVP2,2013-04-04 21:32:00,
2013-04-04 17:37:00,55.2,14.7,30.07,ENE,66,4.0,10.0,20,0.00,,RMK !SN!,0.00,WUHU216DAVISVP2,2013-04-04 21:37:00,
2013-04-04 17:42:00,53.9,15.8,30.07,East,91,2.0,10.0,22,0.00,,RMK !SN!,0.00,WUHU216DAVISVP2,2013-04-04 21:42:00,
2013-04-04 17:47:00,53.2,16.2,30.07,SE,128,1.0,10.0,23,0.00,,RMK !SN!,0.00,WUHU216DAVISVP2,2013-04-04 21:47:00,
2013-04-04 17:52:00,53.1,17.1,30.07,SSW,200,3.0,10.0,24,0.00,,RMK !SN!,0.00,WUHU216DAVISVP2,2013-04-04 21:52:00,
2013-04-04 17:57:00,52.2,16.3,30.07,SSE,148,0.0,5.0,24,0.00,,RMK !SN!,0.00,WUHU216DAVISVP2,2013-04-04 21:57:00,
2013-04-04 18:02:00,52.2,16.3,30.07,SE,134,1.0,5.0,24,0.00,,RMK !SN!,0.00,WUHU216DAVISVP2,2013-04-04 22:02:00,
2013-04-04 18:07:00,51.6,15.9,30.07,South,169,2.0,5.0,24,0.00,,RMK !SN!,0.00,WUHU216DAVISVP2,2013-04-04 22:07:00,
2013-04-04 18:12:00,51.1,15.5,30.07,SE,142,0.0,5.0,24,0.00,,RMK !SN!,0.00,WUHU216DAVISVP2,2013-04-04 22:12:00,
2013-04-04 18:17:00,51.5,16.7,30.07,ESE,118,0.0,4.0,25,0.00,,RMK !SN!,0.00,WUHU216DAVISVP2,2013-04-04 22:17:00,
2013-04-04 18:22:00,51.6,15.8,30.07,SSE,159,1.0,4.0,24,0.00,,RMK !SN!,0.00,WUHU216DAVISVP2,2013-04-04 22:22:00,
2013-04-04 18:27:00,51.4,16.6,30.07,SE,129,1.0,3.0,25,0.00,,RMK !SN!,0.00,WUHU216DAVISVP2,2013-04-04 22:27:00,
2013-04-04 18:32:00,50.7,15.1,30.07,South,183,3.0,3.0,24,0.00,,RMK !SN!,0.00,WUHU216DAVISVP2,2013-04-04 22:32:00,
2013-04-04 18:37:00,50.2,15.6,30.08,SSE,162,0.0,3.0,25,0.00,,RMK !SN!,0.00,WUHU216DAVISVP2,2013-04-04 22:37:00,
2013-04-04 18:42:00,50.4,16.6,30.08,SE,141,0.0,3.0,26,0.00,,RMK !SN!,0.00,WUHU216DAVISVP2,2013-04-04 22:42:00,
2013-04-04 18:47:00,50.4,14.8,30.08,SE,146,0.0,3.0,24,0.00,,RMK !SN!,0.00,WUHU216DAVISVP2,2013-04-04 22:47:00,
2013-04-04 18:52:00,49.8,14.3,30.08,SSE,159,0.0,2.0,24,0.00,,RMK !SN!,0.00,WUHU216DAVISVP2,2013-04-04 22:52:00,
2013-04-04 18:57:00,49.5,14.0,30.08,SE,146,0.0,2.0,24,0.00,,RMK !SN!,0.00,WUHU216DAVISVP2,2013-04-04 22:57:00,
2013-04-04 19:02:00,49.1,14.6,30.08,SSE,148,0.0,2.0,25,0.00,,RMK !SN!,0.00,WUHU216DAVISVP2,2013-04-04 23:02:00,
2013-04-04 19:07:00,48.9,14.4,30.08,ESE,120,0.0,2.0,25,0.00,,RMK !SN!,0.00,WUHU216DAVISVP2,2013-04-04 23:07:00,
2013-04-04 19:12:00,48.4,15.0,30.08,SSE,164,0.0,2.0,26,0.00,,RMK !SN!,0.00,WUHU216DAVISVP2,2013-04-04 23:12:00,
2013-04-04 19:17:00,48.0,14.7,30.08,SE,131,0.0,2.0,26,0.00,,RMK !SN!,0.00,WUHU216DAVISVP2,2013-04-04 23:17:00,
2013-04-04 19:22:00,47.6,14.2,30.08,SE,131,0.0,2.0,26,0.00,,RMK !SN!,0.00,WUHU216DAVISVP2,2013-04-04 23:22:00,
2013-04-04 19:27:00,47.2,14.7,30.08,SE,131,0.0,2.0,27,0.00,,RMK !SN!,0.00,WUHU216DAVISVP2,2013-04-04 23:27:00,
2013-04-04 19:32:00,46.8,15.2,30.07,SSE,148,0.0,2.0,28,0.00,,RMK !SN!,0.00,WUHU216DAVISVP2,2013-04-04 23:32:00,
2013-04-04 19:37:00,46.3,13.9,30.07,SSE,158,1.0,2.0,27,0.00,,RMK !SN!,0.00,WUHU216DAVISVP2,2013-04-04 23:37:00,
2013-04-04 19:42:00,45.9,13.6,30.07,SSE,158,0.0,2.0,27,0.00,,RMK !SN!,0.00,WUHU216DAVISVP2,2013-04-04 23:42:00,
2013-04-04 19:47:00,45.5,14.1,30.07,SSE,158,0.0,2.0,28,0.00,,RMK !SN!,0.00,WUHU216DAVISVP2,2013-04-04 23:47:00,
2013-04-04 19:52:00,45.1,13.7,30.07,SSE,158,0.0,2.0,28,0.00,,RMK !SN!,0.00,WUHU216DAVISVP2,2013-04-04 23:52:00,
2013-04-04 19:57:00,44.7,14.2,30.07,SSE,158,0.0,1.0,29,0.00,,RMK !SN!,0.00,WUHU216DAVISVP2,2013-04-04 23:57:00,
2013-04-04 20:02:00,44.3,13.8,30.06,SSE,158,0.0,1.0,29,0.00,,RMK !SN!,0.00,WUHU216DAVISVP2,2013-04-05 00:02:00,
2013-04-04 20:07:00,43.9,14.4,30.06,SSE,158,0.0,1.0,30,0.00,,RMK !SN!,0.00,WUHU216DAVISVP2,2013-04-05 00:07:00,
2013-04-04 20:12:00,43.4,13.8,30.06,SSE,158,0.0,0.0,30,0.00,,RMK !SN!,0.00,WUHU216DAVISVP2,2013-04-05 00:12:00,
2013-04-04 20:17:00,43.1,14.3,30.06,SSE,158,0.0,0.0,31,0.00,,RMK !SN!,0.00,WUHU216DAVISVP2,2013-04-05 00:17:00,
2013-04-04 20:22:00,42.9,14.8,30.06,SSE,158,0.0,0.0,32,0.00,,RMK !SN!,0.00,WUHU216DAVISVP2,2013-04-05 00:22:00,
2013-04-04 20:27:00,42.4,15.1,30.07,SSE,158,0.0,0.0,33,0.00,,RMK !SN!,0.00,WUHU216DAVISVP2,2013-04-05 00:27:00,
2013-04-04 20:32:00,41.8,15.2,30.06,SSE,158,0.0,0.0,34,0.00,,RMK !SN!,0.00,WUHU216DAVISVP2,2013-04-05 00:32:00,
2013-04-04 20:38:00,41.5,15.6,30.06,SSE,158,0.0,0.0,35,0.00,,RMK !SN!,0.00,WUHU216DAVISVP2,2013-04-05 00:38:00,
2013-04-04 20:43:00,40.9,15.7,30.06,SSE,158,0.0,0.0,36,0.00,,RMK !SN!,0.00,WUHU216DAVISVP2,2013-04-05 00:43:00,
2013-04-04 20:48:00,40.5,16.0,30.06,SSE,158,0.0,0.0,37,0.00,,RMK !SN!,0.00,WUHU216DAVISVP2,2013-04-05 00:48:00,
2013-04-04 20:53:00,40.4,16.1,30.07,SSE,158,0.0,0.0,37,0.00,,RMK !SN!,0.00,WUHU216DAVISVP2,2013-04-05 00:53:00,
2013-04-04 20:58:00,40.1,16.5,30.06,SSE,158,0.0,0.0,38,0.00,,RMK !SN!,0.00,WUHU216DAVISVP2,2013-04-05 00:58:00,
2013-04-04 21:03:00,40.3,17.1,30.06,SSE,158,0.0,0.0,39,0.00,,RMK !SN!,0.00,WUHU216DAVISVP2,2013-04-05 01:03:00,
2013-04-04 21:08:00,40.3,16.5,30.06,SSE,158,0.0,0.0,38,0.00,,RMK !SN!,0.00,WUHU216DAVISVP2,2013-04-05 01:08:00,
2013-04-04 21:13:00,40.3,17.7,30.06,SSE,158,0.0,0.0,40,0.00,,RMK !SN!,0.00,WUHU216DAVISVP2,2013-04-05 01:13:00,
2013-04-04 21:18:00,40.3,17.7,30.06,SSE,158,0.0,0.0,40,0.00,,RMK !SN!,0.00,WUHU216DAVISVP2,2013-04-05 01:18:00,
2013-04-04 21:23:00,40.1,17.5,30.06,SSE,158,0.0,0.0,40,0.00,,RMK !SN!,0.00,WUHU216DAVISVP2,2013-04-05 01:23:00,
2013-04-04 21:28:00,40.1,18.1,30.06,SSE,158,0.0,0.0,41,0.00,,RMK !SN!,0.00,WUHU216DAVISVP2,2013-04-05 01:28:00,
2013-04-04 21:33:00,40.1,18.1,30.06,SSE,158,0.0,0.0,41,0.00,,RMK !SN!,0.00,WUHU216DAVISVP2,2013-04-05 01:33:00,
2013-04-04 21:38:00,40.0,18.6,30.06,SSE,158,0.0,0.0,42,0.00,,RMK !SN!,0.00,WUHU216DAVISVP2,2013-04-05 01:38:00,
2013-04-04 21:43:00,39.7,18.5,30.06,SSE,158,0.0,0.0,42,0.00,,RMK !SN!,0.00,WUHU216DAVISVP2,2013-04-05 01:43:00,
2013-04-04 21:48:00,39.7,18.5,30.06,SSE,158,0.0,0.0,42,0.00,,RMK !SN!,0.00,WUHU216DAVISVP2,2013-04-05 01:48:00,
2013-04-04 21:53:00,39.7,19.0,30.05,SSE,158,0.0,0.0,43,0.00,,RMK !SN!,0.00,WUHU216DAVISVP2,2013-04-05 01:53:00,
2013-04-04 21:58:00,39.6,18.9,30.05,SSE,158,0.0,0.0,43,0.00,,RMK !SN!,0.00,WUHU216DAVISVP2,2013-04-05 01:58:00,
2013-04-04 22:03:00,39.4,19.3,30.05,SSE,158,0.0,0.0,44,0.00,,RMK !SN!,0.00,WUHU216DAVISVP2,2013-04-05 02:03:00,
2013-04-04 22:08:00,39.2,19.5,30.05,SSE,158,0.0,0.0,45,0.00,,RMK !SN!,0.00,WUHU216DAVISVP2,2013-04-05 02:08:00,
2013-04-04 22:13:00,39.2,19.5,30.05,SSE,158,0.0,1.0,45,0.00,,RMK !SN!,0.00,WUHU216DAVISVP2,2013-04-05 02:13:00,
2013-04-04 22:18:00,39.2,19.0,30.05,SSE,158,0.0,1.0,44,0.00,,RMK !SN!,0.00,WUHU216DAVISVP2,2013-04-05 02:18:00,
2013-04-04 22:23:00,39.0,18.8,30.05,SSE,158,0.0,1.0,44,0.00,,RMK !SN!,0.00,WUHU216DAVISVP2,2013-04-05 02:23:00,
2013-04-04 22:28:00,39.0,18.2,30.05,SSE,158,0.0,1.0,43,0.00,,RMK !SN!,0.00,WUHU216DAVISVP2,2013-04-05 02:28:00,
2013-04-04 22:33:00,39.3,18.5,30.05,South,186,0.0,2.0,43,0.00,,RMK !SN!,0.00,WUHU216DAVISVP2,2013-04-05 02:33:00,
2013-04-04 22:38:00,39.4,17.5,30.04,SE,144,0.0,2.0,41,0.00,,RMK !SN!,0.00,WUHU216DAVISVP2,2013-04-05 02:38:00,
2013-04-04 22:43:00,39.5,18.1,30.04,SE,143,0.0,2.0,42,0.00,,RMK !SN!,0.00,WUHU216DAVISVP2,2013-04-05 02:43:00,
2013-04-04 22:48:00,39.2,17.8,30.04,SE,143,0.0,2.0,42,0.00,,RMK !SN!,0.00,WUHU216DAVISVP2,2013-04-05 02:48:00,
2013-04-04 22:53:00,39.1,17.4,30.04,SE,143,0.0,1.0,41,0.00,,RMK !SN!,0.00,WUHU216DAVISVP2,2013-04-05 02:53:00,
2013-04-04 22:58:00,39.2,17.3,30.04,NE,43,0.0,2.0,41,0.00,,RMK !SN!,0.00,WUHU216DAVISVP2,2013-04-05 02:58:00,
2013-04-04 23:03:00,39.3,16.2,30.04,ENE,61,0.0,2.0,39,0.00,,RMK !SN!,0.00,WUHU216DAVISVP2,2013-04-05 03:03:00,
2013-04-04 23:08:00,39.7,15.9,30.04,ENE,64,0.0,2.0,38,0.00,,RMK !SN!,0.00,WUHU216DAVISVP2,2013-04-05 03:08:00,
2013-04-04 23:13:00,39.9,15.5,30.03,WNW,291,0.0,2.0,37,0.00,,RMK !SN!,0.00,WUHU216DAVISVP2,2013-04-05 03:13:00,
2013-04-04 23:18:00,40.2,15.8,30.03,NE,56,2.0,4.0,37,0.00,,RMK !SN!,0.00,WUHU216DAVISVP2,2013-04-05 03:18:00,
2013-04-04 23:23:00,40.3,15.4,30.03,ENE,70,1.0,4.0,36,0.00,,RMK !SN!,0.00,WUHU216DAVISVP2,2013-04-05 03:23:00,
2013-04-04 23:28:00,40.3,15.8,30.03,ENE,77,0.0,3.0,37,0.00,,RMK !SN!,0.00,WUHU216DAVISVP2,2013-04-05 03:28:00,
2013-04-04 23:33:00,40.2,15.1,30.03,East,87,0.0,3.0,36,0.00,,RMK !SN!,0.00,WUHU216DAVISVP2,2013-04-05 03:33:00,
2013-04-04 23:38:00,40.1,15.0,30.03,East,88,0.0,2.0,36,0.00,,RMK !SN!,0.00,WUHU216DAVISVP2,2013-04-05 03:38:00,
2013-04-04 23:43:00,40.1,15.0,30.03,NE,53,0.0,2.0,36,0.00,,RMK !SN!,0.00,WUHU216DAVISVP2,2013-04-05 03:43:00,
2013-04-04 23:48:00,40.0,14.9,30.02,East,85,0.0,3.0,36,0.00,,RMK !SN!,0.00,WUHU216DAVISVP2,2013-04-05 03:48:00,
2013-04-04 23:53:00,39.7,15.3,30.02,East,85,0.0,3.0,37,0.00,,RMK !SN!,0.00,WUHU216DAVISVP2,2013-04-05 03:53:00,
2013-04-04 23:59:00,39.3,15.0,30.02,East,84,0.0,2.0,37,0.00,,RMK !SN!,0.00,WUHU216DAVISVP2,2013-04-05 03:59:00,